Aéroclub Castres-Mazamet
ACCUEIL




METAR
LFCK 121330Z AUTO VRB03KT 9999 FEW012/// BKN021/// BKN036/// ///TCU 08/07 Q1009 BECMG BKN025



Liens utiles
F.F.A
Météo France
OLIVIA
SIA
D.G.A.C
Bienvenue à l'aéroclub de Castres-Mazamet


               





Actualités

 Assemblée Générale   
Publié le 06-Jan-2019    
L'AG du club aura lieu le vendredi 15 février 2019


Voir plus